ASIASAT 8 (AMOS-7)

Last updated on Thu Nov 21 2024 00:02:42 GMT+0000 (Coordinated Universal Time)

1 40107U 14046A 24324.65124536 -.00000031 00000+0 00000+0 0 9997 2 40107 0.0703 84.8288 0002434 169.5676 35.3518 1.00272155 96389
UTC large
Height (km)
Speed (km/s)
/
Latitude / Longitude
Inclination (degrees)
Orbital Period (minutes)
Azimuth
Elevation
Range (km)
Doppler Factor

Next 0 passes for location: London (51.5072 / 0.1276)

Sorry there are no passes over London.